CW0506 Weather Reports


Display with metric or nautical units.
time (UTC)temp
F
wind
direction
speed
MPH
gust
MPH
rain 1hr
in
rain 24hr
in
rain mn
in
humidity
%
barometer
mb
20260901064003 67 125 0.0 0.0 0.00 0.00 0.00 99 1015.8
20260901063500 67 150 0.0 0.0 0.00 0.00 0.00 99 1015.8
20260901062955 67 150 0.0 0.0 0.00 0.00 0.00 99 1015.8
20260901062451 67 125 0.0 0.0 0.00 0.00 0.00 99 1015.9
20260901061947 67 125 0.0 2.0 0.00 0.00 0.00 99 1015.9
20260901061442 67 123 0.0 1.0 0.00 0.00 0.00 99 1016.1
20260901060937 67 176 0.0 0.0 0.00 0.00 0.00 99 1016.2
20260901060432 67 176 0.0 0.0 0.00 0.00 0.00 99 1016.0
20260901055931 67 176 0.0 1.0 0.00 0.00 0.00 99 1016.1
20260901055429 67 166 0.0 0.0 0.00 0.00 0.00 99 1016.1
20260901054924 67 166 0.0 0.0 0.00 0.00 0.00 99 1016.2
20260901054422 67 166 0.0 0.0 0.00 0.00 0.00 99 1015.9
20260901053917 67 204 0.0 1.0 0.00 0.00 0.00 99 1016.3
20260901053413 67 49 0.0 0.0 0.00 0.00 0.00 99 1016.3
20260901052908 67 49 0.0 2.0 0.00 0.00 0.00 99 1016.5
20260901052403 67 137 0.0 1.0 0.00 0.00 0.00 99 1016.3
20260901051856 67 150 0.0 2.0 0.00 0.00 0.00 99 1016.4
20260901051352 67 115 0.0 2.0 0.00 0.00 0.00 99 1016.4
20260901050846 67 144 0.0 1.0 0.00 0.00 0.00 99 1016.3
20260901050342 67 88 0.0 2.0 0.00 0.00 0.00 99 1016.2
20260901045837 67 61 0.0 1.0 0.00 0.00 0.00 99 1016.4
20260901045336 67 213 0.0 0.0 0.00 0.00 0.00 99 1016.4
20260901044832 67 213 0.0 1.0 0.00 0.00 0.00 98 1016.3
20260901044328 67 166 0.0 1.0 0.00 0.00 0.00 98 1016.6
20260901043824 67 162 0.0 1.0 0.00 0.00 0.00 98 1016.5
20260901043320 67 189 0.0 2.0 0.00 0.00 0.00 98 1016.5
20260901042818 67 217 0.0 0.0 0.00 0.00 0.00 97 1016.5
20260901042313 67 217 0.0 1.0 0.00 0.00 0.00 97 1016.6
20260901041809 67 129 0.0 1.0 0.00 0.00 0.00 97 1016.6
20260901041304 67 155 0.0 0.0 0.00 0.00 0.00 97 1016.6
20260901040759 68 155 0.0 0.0 0.00 0.00 0.00 97 1016.6
20260901040258 68 155 0.0 1.0 0.00 0.00 0.00 97 1016.6
20260901035756 68 144 0.0 1.0 0.00 0.00 0.00 96 1016.5
20260901035255 67 160 0.0 1.0 0.00 0.00 0.00 96 1016.7
20260901034754 67 125 0.0 1.0 0.00 0.00 0.00 96 1016.7
20260901034249 67 107 0.0 1.0 0.00 0.00 0.00 96 1016.6
20260901033744 68 134 0.0 1.0 0.00 0.00 0.00 96 1016.6
20260901033243 68 107 0.0 1.0 0.00 0.00 0.00 96 1016.9
20260901032741 68 44 0.0 0.0 0.00 0.00 0.00 95 1016.7
20260901032236 68 44 0.0 1.0 0.00 0.00 0.00 95 1016.8
20260901031726 68 132 0.0 0.0 0.00 0.00 0.00 95 1016.6
20260901031221 68 132 0.0 1.0 0.00 0.00 0.00 95 1017.0
20260901030716 68 115 0.0 0.0 0.00 0.00 0.00 95 1017.0
20260901030211 68 119 0.0 1.0 0.00 0.00 0.00 95 1016.9
20260901025705 68 189 0.0 0.0 0.00 0.00 0.00 95 1016.8
20260901025200 68 189 0.0 0.0 0.00 0.00 0.00 95 1016.9
20260901024700 68 162 0.0 1.0 0.00 0.00 0.00 94 1016.7
20260901024159 68 73 0.0 0.0 0.00 0.00 0.00 94 1016.9
20260901023657 68 73 0.0 0.0 0.00 0.00 0.00 94 1016.9
20260901023152 68 73 0.0 0.0 0.00 0.00 0.00 93 1017.0
20260901022648 68 73 0.0 0.0 0.00 0.00 0.00 93 1017.1
20260901022143 68 73 0.0 0.0 0.00 0.00 0.00 93 1016.9
20260901021638 68 150 0.0 0.0 0.00 0.00 0.00 93 1017.0
20260901021133 68 150 0.0 0.0 0.00 0.00 0.00 93 1016.8
20260901020630 68 150 0.0 0.0 0.00 0.00 0.00 93 1016.7
20260901020124 68 137 0.0 1.0 0.00 0.00 0.00 93 1016.7
20260901015620 68 115 0.0 0.0 0.00 0.00 0.00 92 1016.8
20260901015119 68 115 0.0 0.0 0.00 0.00 0.00 92 1016.8
20260901014614 68 115 0.0 1.0 0.00 0.00 0.00 92 1016.7
20260901014111 68 175 0.0 1.0 0.00 0.00 0.00 92 1016.8
20260901013606 68 107 0.0 1.0 0.00 0.00 0.00 92 1016.9
20260901013101 68 125 0.0 1.0 0.00 0.00 0.00 92 1016.7
20260901012556 68 137 0.0 0.0 0.00 0.00 0.00 92 1016.9
20260901012051 68 107 0.0 0.0 0.00 0.00 0.00 92 1017.0
20260901011548 68 107 0.0 1.0 0.00 0.00 0.00 91 1017.2
20260901011045 68 254 0.0 0.0 0.00 0.00 0.00 90 1016.9
20260901010541 68 83 0.0 0.0 0.00 0.00 0.00 90 1017.4
20260901010039 68 125 0.0 0.0 0.00 0.00 0.00 90 1017.3
20260901005535 68 126 0.0 1.0 0.00 0.00 0.00 89 1017.1
20260901005030 68 132 0.0 1.0 0.00 0.00 0.00 89 1017.2
20260901004529 69 175 0.0 1.0 0.00 0.00 0.00 89 1017.1
20260901004024 69 118 0.0 1.0 0.00 0.00 0.00 89 1017.1
20260901003519 69 122 0.0 2.0 0.00 0.00 0.00 90 1016.9
20260901003017 69 150 0.0 0.0 0.00 0.00 0.00 88 1017.0
20260901002511 69 137 0.0 0.0 0.00 0.00 0.00 86 1016.9
20260901002006 69 137 0.0 1.0 0.00 0.00 0.00 85 1016.7
20260901001501 69 73 0.0 1.0 0.00 0.00 0.00 86 1016.8
20260901000956 69 150 0.0 0.0 0.00 0.00 0.00 86 1016.8
20260901000451 69 150 0.0 0.0 0.00 0.00 0.00 85 1016.6
20260831235950 69 125 0.0 1.0 0.00 0.00 0.00 83 1016.7
20260831235445 69 91 0.0 1.0 0.00 0.00 0.00 84 1016.8
20260831234940 69 125 0.0 0.0 0.00 0.00 0.00 83 1016.8
20260831234435 69 150 0.0 0.0 0.00 0.00 0.00 83 1016.7
20260831233931 69 150 0.0 1.0 0.00 0.00 0.00 83 1016.8
20260831233426 69 204 0.0 0.0 0.00 0.00 0.00 84 1016.7
20260831232922 69 160 0.0 1.0 0.00 0.00 0.00 87 1016.7
20260831232417 69 137 0.0 0.0 0.00 0.00 0.00 86 1016.9
20260831231913 69 150 0.0 1.0 0.00 0.00 0.00 86 1016.9
20260831231409 69 162 0.0 1.0 0.00 0.00 0.00 86 1016.9
20260831230905 70 162 0.0 0.0 0.00 0.00 0.00 87 1016.9
20260831230359 70 175 0.0 0.0 0.00 0.00 0.00 87 1017.0
20260831225854 70 229 0.0 0.0 0.00 0.00 0.00 85 1017.1
20260831225349 70 229 0.0 1.0 0.00 0.00 0.00 85 1017.2
20260831224844 71 254 0.0 1.0 0.00 0.00 0.00 86 1017.1
20260831224339 71 107 0.0 2.0 0.00 0.00 0.00 83 1017.2
20260831223838 71 125 0.0 1.0 0.00 0.00 0.00 83 1017.2
20260831223335 71 114 0.0 1.0 0.00 0.00 0.00 83 1017.3
20260831222831 71 100 0.0 2.0 0.00 0.00 0.00 83 1017.2
20260831222327 71 125 0.0 1.0 0.00 0.00 0.00 84 1017.2
20260831221827 71 281 0.0 2.0 0.00 0.00 0.00 84 1017.2
20260831221323 71 155 0.0 0.0 0.00 0.00 0.00 86 1017.2
20260831220818 71 143 0.0 1.0 0.00 0.00 0.00 87 1017.4
20260831220313 71 122 0.0 1.0 0.00 0.00 0.00 87 1017.2
20260831215808 72 189 0.0 1.0 0.00 0.00 0.00 86 1017.3
20260831215306 72 176 0.0 0.0 0.00 0.00 0.00 85 1017.1
20260831214801 73 176 0.0 0.0 0.00 0.00 0.00 86 1017.1
20260831214258 73 254 0.0 2.0 0.00 0.00 0.00 84 1017.1
20260831213753 73 250 0.0 3.0 0.00 0.00 0.00 81 1017.1
20260831213250 73 297 2.0 3.0 0.00 0.00 0.00 80 1017.1
20260831212749 74 217 0.0 0.0 0.00 0.00 0.00 81 1017.0
20260831212246 75 207 0.0 5.0 0.00 0.00 0.00 79 1017.0
20260831211744 74 26 1.0 3.0 0.00 0.00 0.00 78 1016.9
20260831211235 74 279 3.0 6.0 0.00 0.00 0.00 77 1016.9
20260831210734 75 317 2.0 7.0 0.00 0.00 0.00 77 1016.8
20260831210230 75 287 1.0 5.0 0.00 0.00 0.00 77 1016.9
20260831205729 75 302 3.0 8.0 0.00 0.00 0.00 77 1017.0
20260831205221 76 314 2.0 7.0 0.00 0.00 0.00 75 1016.9
20260831204721 76 272 1.0 5.0 0.00 0.00 0.00 74 1016.7
20260831204220 77 296 2.0 4.0 0.00 0.00 0.00 74 1016.9
20260831203714 78 272 0.0 5.0 0.00 0.00 0.00 70 1016.9
20260831203213 77 290 5.0 7.0 0.00 0.00 0.00 72 1016.8
20260831202712 75 293 1.0 4.0 0.00 0.00 0.00 77 1016.8
20260831202207 75 300 2.0 4.0 0.00 0.00 0.00 75 1017.1
20260831201701 75 258 2.0 3.0 0.00 0.00 0.00 75 1017.1
20260831201200 75 266 2.0 3.0 0.00 0.00 0.00 78 1017.1
20260831200656 76 282 2.0 3.0 0.00 0.00 0.00 74 1017.3
20260831200151 75 293 2.0 4.0 0.00 0.00 0.00 72 1017.2
20260831195646 76 293 3.0 4.0 0.00 0.00 0.00 71 1017.0
20260831195142 76 251 2.0 5.0 0.00 0.00 0.00 74 1017.1
20260831194636 76 247 0.0 4.0 0.00 0.00 0.00 74 1017.1
20260831194131 76 281 1.0 6.0 0.00 0.00 0.00 74 1017.0
20260831193626 78 314 4.0 6.0 0.00 0.00 0.00 66 1017.2
20260831193121 77 270 2.0 5.0 0.00 0.00 0.00 69 1017.2
20260831192616 76 280 0.0 5.0 0.00 0.00 0.00 74 1017.3
20260831192111 76 327 3.0 4.0 0.00 0.00 0.00 71 1017.4
20260831191602 76 9 0.0 4.0 0.00 0.00 0.00 71 1017.5
20260831191057 76 17 2.0 3.0 0.00 0.00 0.00 72 1017.5
20260831190553 76 291 3.0 5.0 0.00 0.00 0.00 70 1017.6
20260831190051 77 311 0.0 3.0 0.00 0.00 0.00 70 1017.8
20260831185547 77 275 3.0 3.0 0.00 0.00 0.00 66 1017.6
20260831185043 77 41 0.0 4.0 0.00 0.00 0.00 69 1017.6
20260831184542 77 280 2.0 3.0 0.00 0.00 0.00 65 1018.0
20260831184038 78 331 2.0 4.0 0.00 0.00 0.00 65 1018.1
20260831183536 77 262 0.0 4.0 0.00 0.00 0.00 65 1017.8
20260831183031 77 310 2.0 5.0 0.00 0.00 0.00 68 1017.7
20260831182525 77 325 3.0 5.0 0.00 0.00 0.00 66 1017.9
20260831182021 77 231 0.0 4.0 0.00 0.00 0.00 68 1017.7
20260831181516 76 270 1.0 2.0 0.00 0.00 0.00 71 1017.8
20260831181015 75 234 1.0 5.0 0.00 0.00 0.00 66 1018.0
20260831180515 76 257 1.0 3.0 0.00 0.00 0.00 68 1017.9
20260831180010 77 340 3.0 5.0 0.00 0.00 0.00 65 1018.0
20260831175506 76 357 1.0 3.0 0.00 0.00 0.00 68 1018.1
20260831175002 77 338 3.0 7.0 0.00 0.00 0.00 67 1018.2
20260831174457 76 189 0.0 3.0 0.00 0.00 0.00 66 1018.3
20260831173956 76 155 0.0 2.0 0.00 0.00 0.00 66 1018.6
20260831173455 78 4 3.0 4.0 0.00 0.00 0.00 64 1018.3
20260831172951 77 212 2.0 5.0 0.00 0.00 0.00 71 1018.5
20260831172446 78 312 5.0 7.0 0.00 0.00 0.00 62 1018.2
20260831171941 77 333 0.0 5.0 0.00 0.00 0.00 64 1018.6
20260831171432 77 275 2.0 7.0 0.00 0.00 0.00 65 1018.6
20260831170928 77 171 0.0 3.0 0.00 0.00 0.00 63 1018.5
20260831170424 78 37 2.0 3.0 0.00 0.00 0.00 60 1018.6
20260831165921 76 284 0.0 6.0 0.00 0.00 0.00 61 1018.6
20260831165416 77 30 2.0 3.0 0.00 0.00 0.00 60 1018.8
20260831164913 75 348 0.0 4.0 0.00 0.00 0.00 64 1018.8
20260831164409 74 175 0.0 2.0 0.00 0.00 0.00 73 1018.9
20260831163904 76 157 1.0 5.0 0.00 0.00 0.00 68 1018.8
20260831163359 76 21 3.0 5.0 0.00 0.00 0.00 63 1019.0
20260831162858 75 126 3.0 4.0 0.00 0.00 0.00 65 1019.0
20260831162353 77 131 2.0 4.0 0.00 0.00 0.00 67 1019.2
20260831161852 77 0 2.0 3.0 0.00 0.00 0.00 70 1019.2
20260831161348 76 295 2.0 4.0 0.00 0.00 0.00 64 1018.9
20260831160843 75 280 3.0 4.0 0.00 0.00 0.00 66 1019.1
20260831160338 75 174 2.0 2.0 0.00 0.00 0.00 69 1019.1
20260831155833 75 343 2.0 4.0 0.00 0.00 0.00 68 1019.4
20260831155332 75 100 0.0 2.0 0.00 0.00 0.00 64 1019.1
20260831154828 75 112 0.0 4.0 0.00 0.00 0.00 63 1019.3
20260831154325 74 282 4.0 7.0 0.00 0.00 0.00 66 1019.2
20260831153823 75 283 2.0 7.0 0.00 0.00 0.00 76 1019.3
20260831153319 76 103 2.0 5.0 0.00 0.00 0.00 69 1019.3
20260831152815 75 315 5.0 5.0 0.00 0.00 0.00 72 1019.3
20260831152311 75 343 3.0 5.0 0.00 0.00 0.00 70 1019.3
20260831151806 75 295 0.0 5.0 0.00 0.00 0.00 77 1019.1
20260831151305 75 272 2.0 7.0 0.00 0.00 0.00 72 1019.0
20260831150800 75 12 1.0 3.0 0.00 0.00 0.00 71 1019.2
20260831150255 75 99 3.0 5.0 0.00 0.00 0.00 72 1019.2
20260831145754 75 81 6.0 7.0 0.00 0.00 0.00 71 1019.1
20260831145251 75 332 2.0 5.0 0.00 0.00 0.00 73 1019.2
20260831144746 75 77 2.0 3.0 0.00 0.00 0.00 72 1019.4
20260831144243 75 73 3.0 7.0 0.00 0.00 0.00 72 1019.4
20260831143742 74 299 3.0 7.0 0.00 0.00 0.00 75 1019.4
20260831143238 74 286 2.0 4.0 0.00 0.00 0.00 75 1019.3
20260831142733 73 88 0.0 3.0 0.00 0.00 0.00 83 1019.2
20260831142228 74 318 3.0 5.0 0.00 0.00 0.00 75 1019.3
20260831141727 72 284 3.0 6.0 0.00 0.00 0.00 78 1019.0
20260831141223 73 298 1.0 4.0 0.00 0.00 0.00 80 1019.2
20260831140722 72 66 0.0 4.0 0.00 0.00 0.00 78 1019.0
20260831140217 73 260 0.0 5.0 0.00 0.00 0.00 77 1019.2
20260831135715 72 122 0.0 6.0 0.00 0.00 0.00 77 1019.2
20260831135211 74 58 2.0 4.0 0.00 0.00 0.00 77 1018.9
20260831134706 73 93 1.0 3.0 0.00 0.00 0.00 80 1019.0
20260831134203 72 292 0.0 3.0 0.00 0.00 0.00 84 1019.1
20260831133701 71 259 3.0 4.0 0.00 0.00 0.00 85 1019.1
20260831133155 71 286 0.0 4.0 0.00 0.00 0.00 87 1019.0
20260831132652 71 274 0.0 3.0 0.00 0.00 0.00 85 1019.2
20260831132150 70 275 1.0 3.0 0.00 0.00 0.00 89 1019.0
20260831131645 71 268 3.0 6.0 0.00 0.00 0.00 88 1019.2
20260831131142 69 60 0.0 4.0 0.00 0.00 0.00 91 1019.1
20260831130637 69 301 3.0 4.0 0.00 0.00 0.00 92 1019.2
20260831130133 68 51 2.0 4.0 0.00 0.00 0.00 94 1019.2
20260831125631 67 236 0.0 3.0 0.00 0.00 0.00 98 1019.1
20260831125127 67 242 0.0 2.0 0.00 0.00 0.00 99 1019.1
20260831124622 67 262 2.0 6.0 0.00 0.00 0.00 99 1019.2
20260831124119 67 273 0.0 2.0 0.00 0.00 0.00 99 1019.3
20260831123618 66 242 0.0 2.0 0.00 0.00 0.00 99 1019.1
20260831123112 65 283 0.0 1.0 0.00 0.00 0.00 99 1019.1
20260831122611 65 188 1.0 3.0 0.00 0.00 0.00 99 1018.9
20260831122108 65 66 0.0 2.0 0.00 0.00 0.00 99 1019.1
20260831121607 64 113 0.0 3.0 0.00 0.00 0.00 99 1018.9
20260831121103 64 168 0.0 2.0 0.00 0.00 0.00 99 1019.1
20260831120603 64 268 1.0 2.0 0.00 0.00 0.00 99 1019.1
20260831120058 63 349 0.0 4.0 0.00 0.00 0.00 99 1019.1
20260831115554 63 310 1.0 2.0 0.00 0.00 0.00 99 1018.9
20260831115049 63 293 0.0 1.0 0.00 0.00 0.00 99 1019.0
20260831114548 62 287 0.0 1.0 0.00 0.00 0.00 99 1018.9
20260831114043 62 87 0.0 2.0 0.00 0.00 0.00 99 1018.6
20260831113542 62 61 0.0 2.0 0.00 0.00 0.00 99 1018.8
20260831113038 62 217 0.0 2.0 0.00 0.00 0.00 99 1019.1
20260831112537 61 162 0.0 0.0 0.00 0.00 0.00 99 1019.0
20260831112033 61 158 0.0 1.0 0.00 0.00 0.00 99 1018.9
20260831111529 61 50 0.0 2.0 0.00 0.00 0.00 99 1018.8
20260831111024 61 342 0.0 1.0 0.00 0.00 0.00 99 1018.6
20260831110519 61 265 0.0 2.0 0.00 0.00 0.00 99 1018.6
20260831110014 61 103 1.0 2.0 0.00 0.00 0.00 99 1018.4
20260831105508 61 305 0.0 1.0 0.00 0.00 0.00 99 1018.3
20260831105003 61 324 0.0 2.0 0.00 0.00 0.00 99 1018.3
20260831104459 60 204 0.0 1.0 0.00 0.00 0.00 99 1018.4
20260831103955 60 312 0.0 1.0 0.00 0.00 0.00 99 1018.1
20260831103455 60 122 0.0 0.0 0.00 0.00 0.00 99 1018.1
20260831102950 60 62 0.0 0.0 0.00 0.00 0.00 99 1018.2
20260831102445 61 305 0.0 1.0 0.00 0.00 0.00 99 1018.2
20260831101940 61 125 0.0 1.0 0.00 0.00 0.00 99 1018.1
20260831101435 61 115 0.0 2.0 0.00 0.00 0.00 99 1018.0
20260831100931 61 59 0.0 1.0 0.00 0.00 0.00 99 1018.1
20260831100427 61 285 0.0 2.0 0.00 0.00 0.00 99 1018.1
20260831095922 61 62 0.0 1.0 0.00 0.00 0.00 99 1018.1
20260831095421 61 125 0.0 1.0 0.00 0.00 0.00 99 1017.9
20260831094916 61 83 0.0 1.0 0.00 0.00 0.00 99 1018.1
20260831094412 61 122 0.0 1.0 0.00 0.00 0.00 99 1018.0
20260831093908 61 136 0.0 2.0 0.00 0.00 0.00 99 1017.8
20260831093402 61 39 0.0 2.0 0.00 0.00 0.00 99 1017.9
20260831092859 61 229 0.0 1.0 0.00 0.00 0.00 99 1018.0
20260831092355 61 310 0.0 1.0 0.00 0.00 0.00 99 1017.7
20260831091850 61 155 0.0 1.0 0.00 0.00 0.00 99 1017.8
20260831091345 61 161 0.0 1.0 0.00 0.00 0.00 99 1017.8
20260831090840 61 341 0.0 2.0 0.00 0.00 0.00 99 1017.9
20260831090336 61 4 0.0 2.0 0.00 0.00 0.00 99 1017.8
20260831085832 61 243 0.0 2.0 0.00 0.00 0.00 99 1017.8
20260831085326 61 355 0.0 1.0 0.00 0.00 0.00 99 1017.7
20260831084821 61 346 0.0 0.0 0.00 0.00 0.00 99 1017.9
20260831084318 61 327 0.0 1.0 0.00 0.00 0.00 99 1017.8
20260831083813 61 327 2.0 2.0 0.00 0.00 0.00 99 1017.9
20260831083309 61 272 1.0 2.0 0.00 0.00 0.00 99 1017.7
20260831082808 61 9 0.0 1.0 0.00 0.00 0.00 99 1017.6
20260831082306 61 49 0.0 2.0 0.00 0.00 0.00 99 1017.7
20260831081758 61 229 0.0 1.0 0.00 0.00 0.00 99 1017.7
20260831081254 62 9 0.0 2.0 0.00 0.00 0.00 99 1017.7
20260831080749 62 37 2.0 2.0 0.00 0.00 0.00 99 1017.7
20260831080243 62 92 0.0 1.0 0.00 0.00 0.00 99 1017.8
20260831075739 61 62 0.0 1.0 0.00 0.00 0.00 99 1018.0
20260831075235 62 346 0.0 0.0 0.00 0.00 0.00 99 1017.7
20260831074734 62 44 0.0 0.0 0.00 0.00 0.00 99 1017.6
20260831074228 62 315 0.0 1.0 0.00 0.00 0.00 99 1017.6
20260831073724 62 189 0.0 1.0 0.00 0.00 0.00 99 1017.7
20260831073223 62 23 2.0 2.0 0.00 0.00 0.00 99 1017.5
20260831072718 62 295 0.0 3.0 0.00 0.00 0.00 99 1017.3
20260831072215 62 284 0.0 2.0 0.00 0.00 0.00 99 1017.5
20260831071714 63 338 1.0 3.0 0.02 0.00 0.00 99 1017.8
20260831071208 63 329 0.0 2.0 0.02 0.00 0.00 99 1017.7
20260831070703 63 175 0.0 1.0 0.00 0.00 0.00 99 1017.5
20260831070157 63 36 2.0 3.0 0.00 0.00 0.00 99 1017.4
20260831065656 63 73 0.0 2.0 0.00 0.00 0.00 99 1017.3
20260831065155 63 49 2.0 3.0 0.00 0.00 0.00 99 1017.0
20260831064650 64 21 3.0 3.0 0.00 0.00 0.00 99 1017.1
20260831064145 63 359 1.0 3.0 0.00 0.00 0.00 99 1017.0